Location: Bannatyne
(13.0833°N, 59.5333°W)
Time: 06:32:07
(UTC+00:00)

Envisat - Pass Details

Date: 26 June 2021
Orbit: 764 x 766 km, 98.2° (Epoch: 03 August)

Event Time Altitude Azimuth Distance (km) Brightness Sun altitude
Rises 08:51:19 0° 17° (NNE) 3,220 6.9 -10.3°
Reaches altitude 10° 08:53:38 10° 20° (NNE) 2,294 6.2 -9.8°
Maximum altitude 08:58:38 64° 101° (ESE) 841 3.5 -8.7°
Drops below altitude 10° 09:03:38 10° 183° (S) 2,292 5.2 -7.6°
Sets 09:05:57 0° 186° (S) 3,217 5.9 -7.1°
